Powrót do katalogu

FREGAT DEB

LostUNKNOWN
NORAD 45629·DEBRIS·🇷🇺 Russia

Wystrzelony Jul 18, 2011 z Baikonur Cosmodrome

Loading…

Następne Przeloty (najbliższe 24 godziny)

TLE

NieaktualneSource: Space-Track

Epoka: Sep 17, 2022, 16:02 UTC

1 45629U 11037V   22260.66871784  .00087376  00000-0  15680-1 0  9999
2 45629  51.3927   6.5187 1673424 253.0340  88.1036 11.76609108 96837

Śledź FREGAT DEB w czasie rzeczywistym z AllMySat

Download on the App Store